RH
15 13 13 12 14 15 15 14 13 13 13 11 11 11 10 9 8 8 8 9 10 10 10 10 10 9 9 8 8 8 8 8 6 6 7 9 9 9 9 8 9 9 10 11 11 12 11 12 12 11 12 12 13 13 12 12 9 18 43 43 30 34 31 29 33 28 24 29 37 35 33 33 32 29 26 28 28 27 30 28 30 31 30 29 27 26 27 27
15 13 12 12 12 14 15 15 14 14 14 12 12 10 10 10 8 8 9 9 10 9 9 10 11 11 11 10 10 9 8 7 7 7 8 9 8 8 9 8 9 9 9 11 12 11 11 12 12 12 11 11 13 13 12 14 11 28 56 41 29 38 24 19 24 19 20 26 34 37 31 27 28 28 25 28 28 27 29 28 30 29 28 26 24 26 25 25
15 14 12 11 11 12 14 15 14 12 12 12 11 10 10 10 9 9 9 9 10 9 10 11 12 12 13 13 13 13 12 8 6 8 9 7 7 8 8 9 9 9 10 11 12 12 12 12 12 11 10 12 12 11 12 16 15 20 41 38 30 35 21 14 18 15 16 22 32 35 31 30 26 27 29 28 28 29 30 27 27 26 25 24 24 25 24 24
15 13 12 12 10 10 12 12 10 9 10 11 11 11 10 10 10 9 9 10 10 10 12 12 11 11 12 13 14 15 16 12 9 11 9 7 8 7 7 9 9 11 11 12 13 12 12 12 12 10 10 12 11 11 12 15 15 14 33 40 25 20 19 16 16 15 17 19 26 31 33 33 30 32 32 27 30 34 29 22 21 22 21 22 23 23 24 24
15 14 11 12 11 9 9 9 9 10 10 10 9 9 9 10 10 9 9 9 10 12 13 12 11 11 10 12 12 13 17 16 12 11 9 8 8 7 7 8 8 11 12 13 13 11 12 11 10 10 11 14 15 16 16 14 15 16 24 28 18 16 18 16 14 15 18 19 22 29 32 32 32 34 31 27 34 35 24 20 20 20 19 20 22 23 24 22
16 13 9 10 11 10 10 10 11 10 9 9 7 8 9 11 12 12 10 8 9 11 11 11 10 11 10 11 12 13 16 16 12 10 9 9 8 8 8 7 7 9 11 13 12 12 13 11 10 12 13 19 22 21 18 14 15 21 21 17 16 16 15 16 16 15 17 17 20 25 25 29 31 31 30 26 29 28 20 22 22 21 22 22 23 24 23 21
15 12 9 9 11 13 13 11 10 9 9 9 8 7 9 12 13 13 10 8 8 9 11 11 9 10 10 11 12 11 12 13 12 10 9 9 9 9 8 8 7 7 10 11 11 13 12 11 12 13 20 25 22 20 19 13 12 24 25 16 16 16 15 17 16 17 18 16 18 22 23 27 30 28 30 28 24 24 21 23 24 23 25 24 25 25 22 20
15 11 8 8 11 15 13 9 8 9 10 10 8 8 11 13 13 13 10 8 8 9 13 14 12 10 9 9 9 8 11 12 11 10 10 11 10 10 9 8 8 8 10 11 11 13 10 11 13 13 24 28 20 19 19 16 15 23 23 16 16 16 16 17 17 18 18 18 18 23 27 26 29 28 27 28 24 23 23 24 25 25 25 26 25 25 23 20
15 11 9 10 13 13 10 8 9 10 10 10 8 8 12 13 14 14 11 10 10 11 13 12 13 11 9 11 9 9 13 13 10 10 11 12 11 9 9 8 10 9 9 12 12 12 11 11 13 12 19 22 19 20 19 22 20 17 17 15 16 17 18 17 18 20 18 20 22 25 31 29 27 30 28 26 24 23 24 24 26 26 25 26 25 25 24 21
15 10 8 11 12 10 8 8 10 10 10 11 9 8 11 13 14 13 11 11 11 11 10 8 11 12 11 11 10 11 13 12 9 11 12 13 11 8 8 9 11 10 10 12 11 12 12 11 13 11 14 18 19 21 22 25 22 15 16 16 16 17 19 19 18 21 22 21 23 27 34 33 28 34 34 26 24 24 25 25 25 27 26 25 25 25 24 22
15 10 8 9 9 8 8 9 9 9 10 11 9 8 9 10 11 9 9 9 9 10 9 8 10 10 10 9 10 13 13 11 9 11 13 12 11 9 8 8 9 10 10 12 11 11 11 11 14 12 15 19 19 23 23 23 19 13 15 16 19 20 16 19 20 21 25 24 23 27 32 31 29 37 37 25 24 25 24 26 25 26 27 26 26 25 24 23
14 10 7 7 8 9 9 9 8 8 10 10 10 9 9 9 9 9 8 9 10 11 10 9 9 8 9 8 10 14 12 11 10 11 14 13 12 10 10 10 8 9 11 12 12 12 11 13 13 14 18 18 20 23 21 23 19 13 21 23 26 35 24 17 24 22 23 26 22 24 31 36 36 34 31 25 25 26 24 26 26 26 27 26 27 25 24 24
13 10 8 7 8 9 9 8 7 8 8 9 10 10 10 10 9 9 9 10 11 10 11 10 9 8 9 9 12 13 11 11 10 12 15 14 13 13 12 12 10 9 10 12 15 15 14 15 15 16 16 17 21 21 19 19 14 16 27 31 36 45 34 17 22 23 19 26 24 23 32 41 43 31 25 28 26 25 27 26 27 27 27 26 26 25 24 23
11 10 8 7 7 9 8 8 7 6 8 9 10 10 10 10 10 10 9 10 10 10 10 8 9 8 8 11 13 11 11 11 10 13 16 14 15 14 13 13 12 11 11 12 16 17 16 17 15 14 16 21 21 20 31 31 29 37 34 44 53 39 37 31 24 24 20 25 26 25 35 39 37 29 24 29 27 26 27 27 28 27 26 26 25 24 24 23
11 9 8 7 7 7 7 7 6 7 8 9 9 9 9 10 10 9 9 10 11 11 11 9 10 9 9 12 12 11 12 11 12 14 15 15 15 15 15 14 13 12 12 13 15 16 15 14 12 16 18 20 25 34 54 54 58 66 37 45 67 43 46 48 25 26 25 25 29 29 41 41 34 30 25 26 28 27 27 26 27 26 25 25 24 24 23 24
11 9 8 7 7 7 7 8 8 8 8 9 9 9 9 10 10 10 10 10 11 11 11 11 10 10 11 12 12 12 12 12 14 14 13 16 16 17 17 15 15 13 13 12 14 14 12 13 14 21 18 17 40 55 58 57 69 78 43 36 57 45 49 48 28 29 28 26 32 32 38 39 33 29 25 26 27 27 27 26 25 24 25 24 24 24 23 24
11 9 8 7 8 8 9 9 9 9 9 9 9 10 10 10 11 11 11 11 12 11 10 11 9 10 12 12 12 12 13 13 13 14 15 16 17 18 18 17 17 15 14 13 13 13 11 16 17 21 26 28 48 57 49 50 60 70 58 47 54 48 45 47 38 33 30 31 35 35 37 34 31 30 28 26 25 26 26 25 25 24 24 24 24 24 24 24
10 9 8 8 9 9 10 10 10 10 9 10 10 10 10 11 13 12 12 12 11 11 12 11 10 14 13 12 13 13 13 13 14 16 16 17 18 19 18 19 19 17 17 14 11 15 13 17 23 30 42 41 45 55 50 43 40 44 50 49 53 54 48 47 44 36 36 41 39 40 41 35 34 36 33 28 25 26 25 25 25 24 24 24 24 24 24 24
10 11 9 8 9 9 10 9 10 10 10 11 11 11 10 11 12 10 11 12 12 14 14 12 14 18 15 12 14 14 13 13 14 15 15 18 18 18 20 19 19 17 18 17 15 20 19 24 37 42 46 46 46 53 42 33 36 39 43 45 48 53 51 44 42 39 40 44 43 41 41 35 32 35 36 32 27 26 25 25 25 25 25 24 24 24 23 24
12 12 10 10 10 10 11 11 12 13 12 13 14 13 12 12 13 13 11 11 12 14 14 14 15 16 15 14 14 13 15 16 17 16 14 16 17 19 20 17 18 17 23 31 23 20 26 40 50 42 40 44 45 47 39 37 44 43 46 51 50 50 48 39 39 42 39 43 49 48 46 39 33 35 35 33 30 28 27 27 27 26 25 25 24 24 24 23
12 12 13 12 11 12 13 13 13 14 13 15 15 16 16 12 12 13 11 12 14 14 14 15 15 14 14 14 14 13 14 15 17 18 15 16 18 16 14 17 23 21 29 38 27 24 32 40 43 35 35 41 44 50 49 49 51 49 49 49 50 50 44 36 38 43 38 41 49 49 47 43 38 37 35 34 33 29 28 27 27 26 25 25 25 24 24 24
13 13 13 12 12 13 13 13 13 14 14 15 15 18 20 14 12 13 12 14 15 14 14 15 15 16 15 14 13 12 14 14 15 17 17 16 16 15 12 22 32 29 35 37 30 39 42 39 41 35 36 45 55 60 54 54 58 53 49 46 47 48 47 46 46 46 42 41 47 49 46 40 37 37 37 38 35 29 28 27 25 26 26 25 25 25 24 23
13 14 12 12 13 12 12 12 12 12 13 13 12 14 15 12 12 12 10 15 18 16 16 16 15 15 16 17 15 13 13 15 17 16 18 17 15 19 17 28 48 47 45 46 42 45 37 35 41 35 37 41 46 60 60 56 57 48 44 45 45 42 43 46 45 46 47 45 49 54 49 38 34 39 41 40 37 32 29 27 27 26 26 26 25 25 24 23
14 13 12 14 13 11 12 11 11 12 12 13 12 11 12 12 13 13 13 19 22 20 17 16 17 16 16 18 16 17 15 17 22 19 18 20 19 24 22 30 52 50 43 52 52 42 28 28 34 36 49 46 34 51 57 45 46 52 50 44 41 38 36 39 43 47 49 49 50 48 45 40 39 43 43 39 40 40 36 32 30 28 26 27 26 25 25 24
13 12 13 13 12 11 11 10 12 11 10 13 13 13 14 14 17 18 20 24 22 24 23 17 18 17 16 19 17 17 17 18 22 20 20 22 22 26 28 32 41 39 43 52 47 38 32 30 31 37 55 55 39 40 45 39 41 54 57 44 35 34 36 42 48 51 48 45 39 37 46 50 43 40 39 39 41 42 41 37 34 32 29 27 26 26 26 25
12 13 13 13 14 12 11 12 13 10 11 12 12 14 13 15 18 15 27 40 31 28 26 16 18 20 16 18 18 18 21 22 21 21 20 21 24 26 28 35 37 36 49 52 43 41 39 34 37 46 55 56 48 40 41 46 41 45 52 46 40 39 42 48 49 51 52 44 37 38 47 52 42 32 37 45 46 42 40 40 37 34 33 31 29 28 27 27
12 13 12 14 14 12 12 11 11 11 11 9 11 13 10 13 15 11 26 38 26 23 25 17 18 22 20 19 21 21 21 23 21 20 20 20 24 23 26 38 38 37 48 45 36 37 39 37 38 49 54 49 43 36 40 46 38 42 50 44 45 44 42 49 48 51 55 46 45 45 39 50 50 36 42 49 44 40 38 39 39 35 33 30 28 27 26 26
13 12 11 13 11 10 11 8 10 10 8 10 12 12 13 15 15 18 26 20 12 21 25 19 20 21 23 23 22 22 22 24 22 19 20 21 22 21 28 39 42 48 50 39 34 36 39 39 35 41 46 40 31 27 38 43 34 46 54 44 47 49 48 57 55 58 63 48 49 50 34 47 55 39 45 47 36 37 37 36 38 34 28 23 22 23 22 23
12 12 12 11 10 11 10 8 11 10 8 11 9 13 17 11 14 26 27 14 13 26 25 21 23 22 26 26 21 23 23 24 24 21 20 22 22 23 29 37 42 50 47 37 40 42 38 38 38 38 36 36 36 34 43 46 34 40 48 41 48 56 58 64 61 65 71 56 51 51 37 46 55 41 40 40 35 40 38 39 42 31 21 19 19 20 20 22
12 13 11 11 12 11 10 10 11 11 10 9 9 18 15 17 42 44 23 17 19 22 24 22 23 25 29 25 19 25 27 25 27 23 18 20 21 22 29 34 36 45 55 52 47 47 44 42 43 40 33 35 37 35 43 48 37 35 41 40 47 55 54 63 77 73 64 63 63 53 40 46 55 48 39 36 43 47 39 38 42 32 20 18 18 19 20 21
12 12 11 12 11 10 11 9 11 13 10 8 11 17 13 29 64 49 14 19 26 22 24 26 32 41 41 30 22 30 34 28 28 26 25 29 31 30 33 35 35 50 75 72 52 50 51 45 44 42 35 35 33 32 42 48 42 39 41 39 48 60 51 55 83 80 59 64 70 53 41 48 55 50 41 39 47 51 43 37 36 32 24 18 18 20 20 21
10 10 10 11 9 10 9 7 12 11 7 12 10 17 30 34 41 35 19 17 24 28 29 29 39 48 47 36 29 40 41 28 30 41 46 49 49 44 40 45 46 46 62 65 52 55 58 51 48 41 35 36 34 35 44 49 46 43 44 49 63 77 67 61 79 80 65 62 59 46 42 47 49 41 34 34 38 43 44 36 30 29 24 19 19 20 20 21
8 9 8 8 8 8 7 7 10 7 8 14 8 22 50 43 28 37 34 17 18 33 36 37 45 48 44 31 26 42 41 27 34 45 48 53 52 42 40 54 53 36 40 49 46 53 63 61 51 38 36 37 32 33 38 42 42 37 41 55 69 74 71 73 77 72 69 67 54 43 44 50 49 42 40 37 30 31 33 28 24 24 22 20 21 21 21 22
8 9 6 8 7 6 8 7 7 10 10 12 17 27 36 34 34 39 38 32 35 44 48 51 51 41 35 32 33 43 37 29 41 48 46 46 42 33 34 46 47 47 55 49 41 46 49 48 46 38 36 33 29 33 35 36 39 40 42 48 57 63 63 72 78 69 68 74 60 43 50 60 52 42 45 40 28 27 26 23 24 22 21 22 22 22 22 22
9 8 7 8 7 7 10 8 9 13 7 14 34 37 30 35 38 34 40 47 44 46 50 54 48 30 32 48 51 46 36 31 41 46 44 39 33 33 35 37 41 55 59 42 41 49 39 39 48 40 34 31 29 35 39 39 41 44 46 43 48 60 61 66 78 71 65 78 79 62 60 63 46 34 39 38 33 33 29 26 27 23 21 23 23 23 22 22
8 8 8 8 7 9 10 10 13 11 11 26 34 35 48 51 32 28 41 41 39 42 37 40 43 27 31 51 52 46 42 36 36 36 39 41 38 39 44 43 43 52 53 42 42 46 37 43 53 40 31 35 34 34 36 38 41 41 43 45 44 46 51 59 68 70 68 78 81 67 59 54 42 40 46 43 37 36 35 33 30 26 24 25 25 22 22 22
9 9 9 9 9 11 11 13 15 10 15 29 28 39 62 48 26 43 53 38 41 45 27 24 33 26 29 40 42 46 42 35 36 32 34 42 37 39 49 48 43 47 52 46 41 45 45 47 52 45 35 38 37 32 31 33 40 43 42 45 43 42 55 63 64 76 85 83 76 67 63 58 48 49 52 46 40 38 40 39 34 30 28 28 26 21 22 23
10 11 11 11 11 12 14 14 15 16 19 26 32 46 54 35 30 54 56 41 44 44 27 21 24 28 38 38 36 42 38 37 45 38 33 37 32 37 49 46 44 46 45 42 40 46 49 45 50 54 45 42 38 34 39 37 32 37 37 38 41 49 69 71 61 71 83 81 78 75 73 66 60 63 57 43 39 38 39 40 39 35 31 29 26 23 24 24
11 14 13 14 13 13 16 14 15 20 22 35 47 43 39 42 47 55 55 48 44 38 31 28 25 28 39 42 39 36 33 40 47 37 29 30 28 32 40 41 46 49 44 45 46 47 47 42 47 52 46 44 40 40 53 48 33 36 37 38 46 60 74 69 59 69 78 79 85 85 77 61 56 69 62 40 37 39 38 40 39 35 30 27 26 25 25 24
11 16 15 13 14 14 15 14 18 22 24 45 63 51 43 53 53 52 55 51 41 36 35 36 31 27 35 46 43 35 37 43 43 35 32 33 30 30 36 39 45 51 47 40 43 52 50 41 47 54 49 46 41 41 51 48 42 45 45 49 53 54 63 61 57 71 77 79 89 93 84 57 40 52 52 37 37 40 39 41 38 32 28 25 26 25 24 25
11 18 18 13 14 16 15 16 27 40 43 48 59 58 56 57 53 53 54 50 45 41 40 44 40 36 42 43 36 38 46 47 43 39 37 37 30 26 35 41 40 46 46 37 41 52 49 46 56 59 49 45 44 43 45 44 46 49 50 60 63 57 63 65 66 76 75 74 84 90 83 58 37 42 44 37 39 39 37 39 36 30 27 25 25 26 25 25
13 20 20 14 15 17 18 25 38 55 59 47 46 56 61 58 53 51 50 46 46 42 42 48 50 51 51 40 37 46 44 40 43 41 37 38 34 34 44 45 37 38 44 48 52 50 48 56 61 53 46 46 45 43 43 44 48 46 46 57 66 68 67 65 73 81 76 75 81 84 83 61 37 40 43 38 38 34 30 33 34 30 26 26 27 25 27 27
16 20 17 11 16 19 20 27 33 49 63 57 51 57 63 62 52 48 51 48 45 44 46 51 48 45 45 39 41 45 35 32 40 40 43 46 44 53 61 49 39 39 42 50 51 43 46 56 56 54 54 48 42 42 43 42 39 39 47 55 59 66 68 71 83 83 75 78 79 81 86 62 35 40 42 33 32 30 28 30 32 31 28 28 28 27 28 29
15 18 16 11 15 20 23 27 28 44 66 64 54 53 56 59 53 49 54 51 44 45 50 54 44 34 43 48 44 41 32 28 31 32 42 47 47 64 72 55 45 41 38 47 47 36 42 55 55 55 56 48 43 46 51 52 41 37 53 60 57 68 74 71 75 72 68 73 73 82 89 57 32 40 38 30 32 32 29 29 29 32 31 29 29 28 29 29
13 15 16 12 15 15 20 32 39 58 79 66 50 52 51 49 49 49 53 51 47 45 45 47 43 40 51 51 42 44 40 30 29 32 38 45 54 71 72 57 51 45 42 48 42 31 45 60 52 45 50 51 47 47 55 62 56 47 53 56 54 65 65 56 62 68 68 71 70 78 77 46 27 34 31 29 34 32 30 30 28 30 31 29 30 29 30 31
13 18 21 19 18 13 19 32 35 53 78 61 40 48 51 44 45 49 51 47 43 44 44 44 44 43 48 44 37 44 46 37 35 36 37 43 57 73 75 63 54 48 46 44 36 39 57 62 51 49 54 50 43 42 48 54 53 48 51 54 56 60 59 61 73 76 73 79 75 64 57 46 37 36 33 33 35 34 33 31 28 29 29 30 31 30 31 33
14 20 27 24 19 17 24 32 27 33 49 38 26 39 49 46 44 44 49 48 43 42 42 44 43 38 39 41 37 42 48 42 37 37 39 47 60 73 77 71 59 49 45 38 34 47 58 54 53 57 53 46 43 43 45 47 46 44 47 53 59 63 64 64 67 66 67 76 70 51 47 54 48 37 36 37 35 34 33 30 29 30 30 31 32 32 33 33
15 19 26 25 23 26 26 28 31 32 35 33 33 41 48 50 45 39 43 47 47 45 38 38 46 46 49 48 35 35 45 42 38 41 41 49 63 67 65 67 65 57 49 40 38 47 56 57 61 62 55 52 51 47 46 49 49 48 51 54 57 65 69 61 54 57 61 63 55 44 46 53 47 37 37 37 34 33 32 31 31 32 32 33 33 34 34 33
19 19 24 25 26 32 33 33 34 35 39 44 45 46 49 53 49 45 46 45 48 50 39 35 46 55 63 59 39 36 46 36 30 41 45 48 57 60 56 59 69 69 57 47 42 42 51 66 75 72 63 57 52 50 52 56 57 56 56 55 57 62 66 61 54 53 55 54 48 44 48 50 43 38 38 34 32 33 33 33 34 34 33 33 33 34 34 33
19 16 18 21 25 34 41 41 37 38 42 40 38 43 53 58 54 47 45 41 40 47 42 39 51 65 74 68 48 44 52 39 25 34 45 43 45 56 57 54 72 84 67 52 50 41 43 69 85 78 63 56 60 63 58 57 61 58 49 47 53 59 64 65 61 58 59 61 55 52 60 60 46 38 39 36 34 36 37 36 35 32 32 31 32 34 34 33
17 18 17 19 25 35 44 44 39 40 43 38 37 42 50 59 58 47 40 36 37 44 47 45 53 65 72 69 58 51 51 45 35 34 37 33 33 42 41 39 65 90 78 63 62 51 47 67 80 72 58 54 61 65 56 51 58 59 53 53 58 64 71 72 67 65 64 62 60 63 67 60 43 35 36 35 34 36 36 34 32 31 30 31 32 33 33 33
15 19 20 17 20 30 41 45 39 34 36 39 41 41 41 47 49 40 32 35 42 47 48 45 46 53 61 65 62 53 46 43 41 38 36 34 34 36 34 34 53 74 80 76 70 63 63 67 65 60 60 61 62 60 53 50 55 56 52 57 61 63 69 69 62 61 59 53 55 61 55 43 35 34 35 35 33 34 33 32 32 32 32 33 34 34 33 33
Wind_Speed
16 17 15 15 15 15 17 18 18 18 17 16 15 14 14 14 13 13 14 15 16 17 18 18 18 18 19 19 19 19 15 8 5 8 12 17 13 7 6 5 5 4 5 5 3 1 2 2 3 4 5 7 10 9 7 7 6 4 3 4 3 3 3 5 6 6 6 4 10 15 9 6 5 6 10 6 6 9 8 7 7 7 7 8 8 8 8 5
14 15 15 14 13 14 15 16 16 15 14 13 13 13 13 14 14 15 16 17 17 17 17 15 15 15 16 18 18 18 18 13 12 18 19 13 8 5 4 3 3 3 4 4 2 1 3 4 4 4 6 9 10 7 6 7 9 5 3 4 2 4 3 3 8 9 7 8 12 14 11 8 7 12 13 5 4 8 7 7 8 9 10 10 9 9 7 5
13 13 13 12 12 13 14 15 14 13 13 12 12 13 13 13 14 14 15 15 15 15 14 11 9 8 9 11 11 13 14 13 14 20 17 10 9 8 5 3 3 3 3 4 4 3 5 6 4 3 9 13 11 9 9 9 8 4 4 4 3 5 2 2 7 10 9 14 15 14 11 7 11 14 10 7 6 4 5 8 9 11 13 12 11 10 8 5
12 12 11 11 11 13 13 14 14 13 13 12 11 11 11 12 12 12 12 13 13 12 9 5 2 1 2 3 5 7 9 11 16 18 13 11 11 10 7 4 3 4 3 5 5 5 5 5 3 5 12 12 11 11 9 9 5 3 3 3 5 6 3 1 6 9 11 14 15 16 12 8 15 13 10 11 7 4 12 14 9 11 15 14 13 11 9 6
11 11 11 11 12 14 13 13 13 12 11 10 10 10 10 9 9 10 11 11 11 9 4 3 5 3 3 3 1 4 6 5 10 12 10 11 12 11 10 5 3 4 3 4 4 4 4 3 4 7 11 7 8 8 7 9 8 5 3 5 10 7 3 4 9 11 11 10 12 16 11 10 15 12 14 16 8 5 12 15 9 9 12 12 12 11 10 7
11 10 11 11 13 14 13 13 12 10 9 9 8 9 8 6 6 9 11 12 10 7 3 7 9 5 3 3 3 4 3 4 6 9 9 11 11 11 10 7 4 4 4 3 3 4 3 2 4 7 8 5 7 7 4 6 5 5 3 6 8 5 7 9 11 10 8 8 10 12 9 12 14 9 16 22 14 7 8 12 9 10 11 10 11 11 10 6
12 11 11 11 13 13 12 12 11 10 9 8 8 9 8 7 7 8 10 12 10 7 6 13 17 14 12 8 4 8 14 11 6 9 10 11 10 10 10 8 6 1 4 5 4 4 4 4 9 11 8 5 6 7 7 9 9 8 2 2 4 6 11 11 11 10 7 6 5 8 10 11 11 7 13 21 19 11 9 12 11 12 13 12 12 12 10 5
12 12 11 11 12 13 12 12 11 10 9 8 9 11 11 11 11 11 11 11 9 8 6 8 10 11 14 12 10 15 18 12 8 10 10 10 10 10 8 6 6 2 5 5 5 6 6 9 13 10 6 4 6 7 8 11 10 7 3 3 5 7 10 10 10 10 8 6 6 8 8 8 10 7 11 18 17 12 12 12 12 14 14 14 14 13 11 6
12 12 12 12 12 13 13 12 11 11 10 9 10 12 13 13 12 10 11 11 10 7 3 1 3 4 7 4 4 11 12 9 9 10 10 10 11 10 7 8 8 1 6 6 5 6 5 8 8 6 7 7 9 7 4 6 4 3 6 6 8 8 10 10 9 9 7 7 8 6 3 6 8 4 8 15 15 13 13 13 14 15 16 16 16 15 13 9
13 12 13 13 13 13 13 12 12 11 10 10 10 12 13 10 9 7 7 6 5 4 4 3 3 2 3 5 0 6 6 7 9 9 10 10 9 8 10 13 11 4 6 7 6 6 8 11 12 12 13 11 9 7 6 5 4 9 12 10 10 9 8 6 6 7 6 6 8 4 2 6 6 1 6 13 16 16 15 16 16 17 18 17 17 16 13 11
13 12 13 14 14 14 14 13 12 11 10 10 11 10 10 9 6 5 4 3 3 3 2 2 3 2 1 4 9 8 5 6 8 8 9 7 6 7 12 14 12 8 7 9 12 13 14 15 13 10 9 9 9 8 9 7 8 14 16 11 7 5 6 4 5 9 6 4 8 5 3 4 3 2 7 13 17 18 18 19 19 19 19 19 18 16 14 14
13 12 13 14 14 15 15 13 11 9 9 10 11 10 10 9 7 7 6 6 6 6 7 11 14 11 6 11 15 11 6 7 8 8 7 6 7 9 13 14 13 13 9 11 15 13 13 9 5 5 6 7 5 5 7 7 11 13 11 6 2 4 3 2 3 10 6 3 7 3 1 3 4 8 8 9 18 20 19 21 21 22 21 20 20 17 16 15
13 12 13 14 13 15 14 11 9 7 7 8 9 9 9 8 8 8 6 5 5 4 4 8 7 2 2 10 13 9 7 8 9 9 8 8 11 11 13 14 14 16 12 13 13 8 7 2 1 11 14 8 4 5 7 8 11 7 4 3 2 6 1 2 2 7 6 3 5 3 4 5 6 14 12 10 19 22 22 24 24 24 23 22 22 20 19 18
11 12 13 13 12 13 11 8 6 5 5 6 7 7 5 4 5 5 4 4 3 3 1 4 3 2 3 8 8 7 6 7 9 9 9 11 12 11 13 13 13 15 14 15 14 9 9 5 7 15 16 11 8 8 6 6 6 2 2 2 2 3 3 5 5 2 0 2 6 4 3 7 7 13 13 14 21 23 25 27 26 26 25 24 24 22 22 19
10 11 12 12 12 11 9 7 4 2 4 6 6 6 5 4 4 5 6 3 3 3 2 2 3 4 9 9 6 6 6 7 10 10 9 8 8 8 9 10 12 13 13 15 14 12 11 10 12 14 10 9 8 5 3 4 4 3 2 3 2 0 5 7 4 2 4 2 7 4 2 7 7 9 11 16 22 25 27 28 28 28 27 27 26 25 24 21
9 11 12 12 11 10 8 6 4 4 6 6 7 6 6 6 5 6 5 3 3 4 3 3 4 5 7 7 5 5 6 7 9 8 6 3 3 3 3 5 8 9 9 11 12 12 10 8 13 16 12 8 5 4 4 4 4 3 2 2 4 2 4 6 2 2 3 1 5 5 3 6 5 6 10 17 23 27 28 28 29 30 29 29 28 26 26 23
10 11 12 12 11 10 8 6 6 7 7 7 7 5 6 7 5 5 4 3 7 7 5 6 6 6 5 5 4 4 5 6 7 6 4 2 1 2 1 1 3 6 7 6 6 7 7 7 9 11 12 9 3 3 4 3 4 4 3 1 4 3 3 5 3 2 2 2 3 5 6 9 9 8 11 19 24 27 29 30 31 30 30 30 29 28 27 25
10 11 11 11 11 10 7 5 5 6 7 6 4 4 6 7 5 4 4 4 4 2 2 2 1 3 3 3 3 4 3 4 4 4 4 2 0 2 2 3 1 1 4 5 5 7 7 8 6 3 6 7 4 6 4 2 3 3 3 2 4 3 3 5 5 2 3 2 4 5 7 12 12 10 12 20 25 28 31 31 30 30 31 30 30 30 28 27
10 9 10 10 9 8 6 5 6 7 7 5 4 5 7 7 5 3 3 2 1 1 1 3 3 3 3 2 4 5 5 2 1 3 4 3 0 0 1 4 3 1 2 3 7 11 7 5 6 4 4 3 1 3 5 6 6 6 4 3 4 5 5 6 7 3 3 4 7 7 7 10 11 9 10 18 25 30 31 29 28 29 30 31 31 31 30 29
9 9 10 10 8 7 7 9 9 7 6 5 5 5 5 6 3 2 3 5 7 7 4 4 7 7 4 2 1 3 5 5 4 0 4 5 3 2 2 3 4 7 6 1 4 8 6 5 4 1 3 4 5 6 4 3 5 4 3 3 5 5 6 6 6 4 3 4 7 6 7 11 13 11 11 16 21 25 27 25 27 30 30 32 33 33 33 31
11 12 11 10 9 9 11 10 6 2 1 3 4 3 4 5 2 3 8 11 11 9 6 6 9 8 6 3 0 1 1 3 6 4 1 4 6 2 3 2 3 7 6 1 0 3 5 6 1 5 6 4 4 5 4 4 4 3 3 3 4 4 7 7 4 4 3 4 6 6 8 13 13 12 12 11 14 20 28 27 28 32 31 33 34 35 34 31
13 11 10 9 9 10 8 5 3 2 1 3 5 5 6 6 4 7 9 10 8 7 6 5 6 6 6 6 3 1 2 1 5 6 4 2 4 2 3 6 5 3 4 2 2 4 6 3 5 6 4 5 3 2 4 5 4 2 2 1 3 4 5 7 3 2 1 2 6 8 9 13 12 11 11 12 16 20 28 30 31 31 30 33 34 35 34 32
12 11 10 9 8 6 5 4 4 4 5 5 5 5 6 8 10 11 9 8 6 5 4 3 3 4 4 6 6 2 1 3 6 8 8 3 4 5 5 7 4 2 4 4 3 3 3 2 6 4 5 6 2 4 5 5 2 1 1 1 4 3 1 4 3 1 2 3 5 7 9 11 8 5 6 10 17 18 19 23 28 29 30 33 33 33 33 33
11 11 10 9 7 6 6 5 3 4 5 6 6 9 11 11 11 8 7 7 3 2 2 2 3 4 3 4 6 4 5 7 8 10 10 6 5 5 4 4 4 3 4 3 6 6 1 3 5 4 3 4 2 3 5 3 3 3 4 5 4 4 2 5 4 5 6 3 3 5 7 7 5 4 5 5 8 15 16 17 23 28 31 33 32 32 34 34
11 11 10 8 8 8 6 3 3 4 5 4 4 6 7 7 5 3 3 4 1 1 1 1 3 3 2 3 4 2 5 7 9 11 10 8 4 3 3 3 3 2 3 1 6 5 1 3 4 3 4 4 3 0 1 3 2 4 5 7 5 5 5 6 6 6 5 3 2 4 4 5 4 3 6 4 2 9 12 14 22 28 29 30 33 35 36 35
11 10 8 7 7 7 4 2 3 4 3 3 4 3 2 3 2 1 2 4 2 2 1 1 2 3 3 5 3 1 2 3 7 10 8 7 5 2 3 3 4 2 5 1 3 2 2 1 1 3 3 4 4 1 3 4 3 5 3 6 4 4 5 6 4 2 2 3 3 3 2 5 5 4 6 4 4 8 7 11 22 27 28 30 34 36 36 37
10 9 7 6 6 5 3 2 3 3 3 1 2 2 2 2 2 1 2 5 3 2 1 2 1 2 2 6 3 3 1 3 3 8 7 6 4 1 2 1 2 2 3 3 2 1 2 1 3 4 4 4 4 2 3 5 3 4 3 1 3 7 7 5 2 2 2 3 4 3 3 2 5 5 4 4 5 8 8 10 17 25 30 32 34 36 36 36
9 8 7 6 5 4 4 3 3 3 3 2 1 1 2 2 1 0 3 3 2 1 2 1 3 2 3 5 5 3 1 2 1 6 7 6 3 1 1 2 5 3 2 4 1 2 3 2 3 3 4 1 1 2 4 6 1 6 4 3 5 5 4 0 4 3 1 2 4 4 2 0 6 6 2 3 3 7 10 10 12 21 28 30 32 33 33 34
9 7 6 5 4 3 3 3 3 3 3 2 1 2 2 2 2 2 4 1 1 1 1 1 4 1 4 3 4 5 4 2 2 4 6 5 3 3 3 3 7 6 2 3 2 3 1 1 3 5 4 3 5 3 5 7 3 6 7 5 2 2 2 2 4 2 2 3 3 4 1 1 5 6 2 1 2 6 9 8 10 18 23 25 27 28 28 30
8 7 5 5 3 1 0 2 4 3 3 2 1 1 3 2 2 5 2 3 0 1 0 1 3 3 5 2 3 6 4 3 5 4 4 4 4 4 7 5 6 6 1 3 1 3 1 1 1 2 3 4 2 2 3 5 5 7 7 5 3 4 3 3 2 3 4 3 5 5 1 2 3 6 3 3 4 5 6 6 9 15 20 22 23 24 24 25
7 7 6 5 4 3 4 4 5 4 4 2 1 2 3 1 4 5 2 3 1 1 0 1 2 3 5 2 1 5 3 4 7 5 3 4 5 5 6 3 1 3 3 4 2 3 4 1 2 2 2 2 2 1 1 2 2 4 3 3 4 3 3 3 4 4 3 4 5 4 2 2 2 6 5 5 7 6 6 7 9 12 19 22 22 23 23 22
6 7 6 6 6 6 7 7 7 6 4 2 4 3 3 2 1 2 3 2 2 2 0 1 2 2 4 2 1 3 2 3 6 5 2 2 4 3 2 2 1 3 4 3 3 5 3 3 2 2 2 2 2 2 3 2 4 5 3 3 4 4 4 4 4 2 1 5 3 3 2 1 5 9 9 10 11 9 11 14 15 17 22 24 22 22 22 22
6 6 7 7 8 8 8 9 8 6 5 4 6 3 5 4 3 4 2 1 1 1 1 2 1 1 2 1 1 2 1 1 3 4 1 1 3 2 1 1 2 1 1 2 2 4 4 4 3 2 2 3 3 1 2 2 3 4 2 3 3 2 4 4 4 2 3 5 2 4 2 3 5 7 9 12 12 12 14 17 20 22 24 26 24 22 23 24
6 7 7 8 8 9 9 9 8 5 5 6 6 3 5 1 5 3 2 3 1 2 2 2 2 2 2 0 1 1 1 1 2 3 2 2 2 1 2 2 0 2 2 2 1 1 1 4 2 1 1 2 3 2 3 2 2 1 2 3 3 2 2 2 3 2 4 6 3 2 2 3 3 4 7 9 12 16 17 18 20 22 26 26 25 25 26 28
7 7 8 8 8 9 7 6 6 5 7 8 5 5 3 4 4 2 3 4 1 1 2 2 3 3 3 2 2 0 2 1 1 2 2 1 2 2 2 2 1 2 3 1 1 2 1 5 4 1 1 3 2 1 3 4 2 0 2 3 1 2 4 2 3 3 1 4 4 2 3 5 4 9 9 6 11 16 17 18 19 24 27 25 26 29 30 31
7 7 7 7 7 6 5 4 4 6 10 8 5 3 5 4 2 3 2 1 2 3 1 2 3 2 3 4 3 2 1 1 1 2 1 1 3 3 2 2 2 3 3 2 2 1 0 5 4 3 2 3 2 2 2 3 0 0 1 1 2 3 5 3 1 1 4 1 4 2 4 5 3 8 9 6 7 10 11 13 17 23 26 23 27 32 32 33
6 6 6 6 6 5 3 3 5 8 9 7 4 3 6 2 1 3 1 2 2 3 4 0 1 1 2 2 2 2 1 1 2 1 1 2 2 3 3 2 2 3 2 2 2 2 2 4 4 2 1 2 3 3 4 5 2 2 1 3 1 2 3 3 0 4 4 1 4 2 6 7 3 4 6 6 7 9 8 9 13 20 22 23 29 33 33 34
4 4 4 4 4 5 4 4 6 8 7 4 1 4 3 2 2 2 2 2 2 3 4 2 3 2 2 2 2 2 1 1 1 0 1 2 2 3 4 2 2 1 1 3 1 1 2 2 5 1 1 2 2 3 3 5 3 2 3 3 2 1 1 1 0 1 2 3 5 4 6 6 3 4 6 6 8 10 9 8 8 13 19 23 29 32 32 32
3 3 3 3 3 4 4 5 7 8 4 2 3 3 1 2 2 2 4 2 2 2 2 3 2 1 3 4 2 2 2 3 2 0 1 1 2 2 4 2 2 2 2 3 2 1 2 0 4 2 1 2 2 1 1 1 3 3 2 1 2 2 3 1 1 2 1 2 3 4 5 4 6 6 5 8 11 10 10 8 7 13 20 25 28 31 32 31
4 2 2 2 2 4 5 6 7 5 2 2 4 3 1 1 2 3 5 3 2 2 2 2 2 1 3 3 3 2 2 3 3 2 2 2 2 3 3 3 4 4 1 2 2 0 2 1 3 4 3 1 1 2 5 5 3 2 1 1 1 1 2 0 0 2 3 2 2 2 4 7 8 4 6 12 12 9 9 8 9 16 24 28 31 33 33 32
5 2 2 3 3 4 6 6 3 2 2 1 2 1 1 1 2 3 5 4 1 1 2 3 3 3 3 2 2 2 2 2 3 2 3 3 2 2 2 4 7 7 3 2 1 1 1 3 3 4 4 2 4 3 3 5 5 5 4 4 3 3 3 1 3 1 1 3 4 2 3 10 8 3 6 10 8 8 11 10 12 21 28 32 35 36 35 34
5 3 2 4 4 6 7 4 3 3 2 2 1 1 1 0 1 2 4 4 1 0 1 1 2 2 3 2 2 3 3 2 3 3 3 4 3 2 2 4 8 9 6 2 2 2 2 3 1 4 5 4 4 2 0 2 3 4 3 3 3 4 5 4 3 3 1 1 2 3 2 10 8 4 5 7 8 12 18 16 17 25 32 35 38 39 37 36
5 3 3 4 7 8 5 1 3 2 1 1 1 1 2 1 1 2 3 3 1 0 0 0 1 2 2 1 2 3 3 3 4 4 3 3 2 1 2 5 8 7 4 1 2 2 2 2 1 5 5 2 2 2 1 2 3 2 2 2 4 3 3 5 5 3 2 3 2 2 3 10 8 3 6 9 12 16 22 23 23 27 34 37 38 39 39 39
3 3 3 4 8 9 4 1 1 2 2 1 1 0 2 2 2 2 2 3 2 2 1 1 2 2 1 1 2 3 3 2 3 2 2 3 1 1 3 5 6 5 3 1 2 4 2 1 1 3 6 5 4 4 4 3 0 3 3 2 3 4 6 4 2 2 1 5 6 4 5 10 7 2 3 9 12 14 23 30 28 27 33 37 38 40 41 41
2 2 2 3 7 8 5 2 3 3 1 0 1 2 2 1 2 3 2 2 3 3 1 1 1 2 1 2 2 1 1 1 2 1 1 1 1 1 2 4 4 4 2 2 4 5 3 2 2 1 3 5 5 5 3 2 2 2 2 3 4 5 7 4 2 3 3 4 5 5 7 11 10 10 13 15 14 16 24 32 32 29 32 36 38 41 42 41
1 1 1 2 5 6 4 2 3 3 3 3 1 2 1 0 1 2 3 2 3 4 3 1 2 2 1 1 1 2 3 1 1 1 0 2 2 1 1 2 2 3 3 4 4 3 2 1 3 5 6 7 8 7 1 2 1 5 5 5 6 6 6 5 4 3 5 3 3 10 14 15 18 18 17 16 16 17 20 26 31 33 33 36 38 41 42 42
2 1 1 0 1 2 1 1 2 2 3 4 2 1 2 1 2 1 3 3 2 4 3 1 3 3 2 3 2 2 3 0 0 1 2 3 2 2 1 3 2 3 5 5 3 3 3 2 5 7 10 12 10 9 5 3 5 10 9 6 7 7 7 7 7 8 5 4 6 13 11 9 16 19 17 18 19 17 18 24 32 36 38 40 42 43 43 43
2 2 2 1 1 1 1 1 2 4 4 3 2 1 1 2 1 2 3 2 1 4 3 1 3 5 5 5 3 2 2 1 2 3 1 1 1 2 1 2 2 4 5 4 2 3 4 4 5 4 8 12 10 11 10 6 7 9 10 10 7 8 11 13 16 11 9 6 13 14 9 9 17 20 18 20 22 21 26 33 38 40 42 44 43 43 44 45
2 2 2 3 2 2 2 1 3 5 4 2 1 1 3 4 4 4 3 2 1 3 4 3 6 6 6 5 3 2 3 2 3 4 2 2 1 1 0 2 2 4 4 3 1 2 3 3 3 2 6 12 10 11 8 5 6 8 12 11 10 11 14 16 17 12 10 13 19 19 18 17 19 21 21 27 34 33 35 40 41 40 41 42 41 41 41 44
4 3 3 3 2 2 3 2 4 5 2 1 1 2 3 5 6 4 3 4 2 1 4 5 6 4 4 5 5 4 6 5 2 3 4 4 1 2 3 3 3 3 1 2 0 1 2 3 1 4 4 10 7 5 4 3 6 10 15 13 9 11 11 11 13 9 7 13 19 18 17 16 19 22 24 31 37 31 30 36 38 39 40 39 39 41 43 45
6 5 4 3 2 2 2 2 4 4 1 1 3 3 2 5 6 4 3 5 5 3 5 6 3 1 2 3 6 8 7 4 2 3 4 5 4 4 4 3 5 5 2 2 1 1 3 2 2 5 3 7 2 5 7 7 7 10 16 15 7 7 7 7 7 7 8 9 11 10 9 10 14 17 18 23 26 23 24 31 36 40 44 43 41 43 47 48
7 7 6 3 1 1 2 2 2 1 2 3 4 4 3 3 4 4 1 3 3 3 4 5 2 2 2 2 7 8 7 4 4 4 3 4 5 3 3 4 6 6 5 4 1 1 3 1 1 3 2 6 4 6 9 8 7 6 7 5 5 5 5 5 5 7 10 7 5 6 8 11 13 16 18 19 19 19 24 33 36 39 44 47 46 46 47 48
Wind_Direction
95 94 98 106 112 118 121 121 120 114 112 112 114 122 130 135 134 132 127 124 122 119 117 112 107 101 94 90 83 76 71 70 102 102 73 47 32 9 11 38 71 107 134 133 139 130 125 98 73 100 114 91 72 68 64 58 61 87 97 82 118 162 174 178 184 173 145 150 177 190 202 156 153 154 137 124 132 138 146 155 155 169 171 176 176 164 176 196
99 95 95 101 113 124 127 126 124 118 117 118 121 127 131 131 129 129 129 129 129 126 122 114 106 97 91 87 79 76 67 67 92 78 60 46 35 23 13 42 68 106 136 138 165 155 146 135 98 119 127 86 60 62 71 49 49 70 96 94 156 194 169 148 165 161 141 155 175 191 195 174 171 163 154 145 141 140 130 137 152 167 169 172 172 168 178 194
102 98 97 100 114 128 131 127 123 118 116 118 123 131 134 134 133 134 136 137 137 133 127 115 105 93 88 82 74 74 59 55 67 54 46 45 44 41 39 63 89 120 136 153 175 159 147 135 110 116 103 79 58 68 69 44 40 55 85 90 217 204 150 77 155 157 151 154 156 168 180 178 168 164 169 175 165 177 183 170 172 182 181 178 177 175 182 190
105 102 105 108 118 127 130 125 119 116 114 115 122 131 140 143 145 146 147 148 146 140 128 106 70 37 76 68 61 59 39 40 36 27 30 39 38 40 44 61 114 115 129 171 172 155 144 124 130 113 90 71 54 65 53 34 46 56 69 135 178 161 119 94 153 148 144 146 147 157 161 167 172 176 189 167 144 258 227 200 193 197 188 180 179 180 184 192
111 104 108 118 124 124 127 124 118 116 114 116 123 129 134 142 156 164 167 165 159 149 130 357 329 288 241 248 297 337 347 23 13 15 33 33 32 34 37 51 112 126 130 161 165 149 137 115 133 96 73 57 41 58 47 42 72 62 18 146 140 133 133 141 145 146 148 141 142 153 156 167 174 188 197 179 164 250 228 209 195 188 185 174 176 179 181 192
115 101 103 122 128 122 124 123 116 113 111 114 125 126 121 129 150 167 178 177 166 156 110 46 46 73 169 223 266 313 40 87 5 22 39 28 29 25 25 33 63 144 162 178 198 167 160 180 139 87 68 59 44 57 49 31 82 89 49 130 127 125 140 150 154 153 159 146 147 163 166 163 164 190 201 194 208 243 216 197 183 175 180 174 176 181 181 198
117 103 107 127 129 121 119 117 110 105 103 108 123 125 117 118 122 135 160 169 166 156 103 69 64 70 81 84 95 87 86 83 41 44 41 30 27 20 20 18 21 84 187 204 219 184 174 149 118 102 90 80 65 66 69 69 93 107 106 140 109 120 137 152 157 154 166 156 161 173 169 170 169 183 195 204 226 236 191 184 183 179 184 187 189 190 192 219
118 109 117 131 131 125 121 115 106 99 95 101 120 129 121 113 107 107 127 146 154 148 116 73 64 76 89 91 88 79 68 56 55 59 47 42 37 25 17 14 23 21 194 189 183 163 148 116 108 104 84 74 98 95 86 80 75 82 119 153 114 121 140 150 152 156 167 155 160 166 172 192 186 185 199 212 225 212 189 189 187 187 194 200 203 203 205 235
122 115 122 131 134 132 126 119 106 94 89 95 119 137 134 119 111 106 114 130 140 148 159 48 59 103 117 112 55 59 50 44 66 69 64 62 51 42 41 49 50 100 173 156 159 164 153 118 112 126 113 100 107 100 77 72 48 102 133 142 128 124 136 143 151 157 161 156 161 165 188 196 181 198 225 218 213 197 195 196 195 201 207 208 211 213 217 241
128 124 128 133 136 134 128 120 105 91 87 92 113 143 151 139 128 122 119 133 152 191 249 270 255 246 258 257 244 64 50 60 80 89 82 73 66 62 64 64 63 91 130 122 124 132 130 115 106 109 107 95 94 77 47 66 111 134 127 120 122 133 145 150 161 161 158 169 183 188 182 187 170 163 240 218 205 199 200 201 205 212 215 217 219 219 225 244
132 130 135 137 137 133 127 118 104 92 92 95 103 130 152 150 144 133 122 124 127 144 150 120 101 64 278 173 118 90 73 85 99 108 91 77 81 70 65 66 70 85 107 114 108 109 115 113 104 99 92 89 90 68 58 77 125 133 124 112 104 127 162 183 185 174 164 190 218 212 145 188 196 246 244 216 204 204 205 207 211 217 220 223 225 227 233 247
135 134 140 142 138 135 130 118 104 97 100 104 101 111 129 137 139 132 122 109 101 107 114 110 96 81 90 101 92 85 86 101 117 117 98 80 76 68 67 65 66 77 94 113 110 113 118 113 89 82 101 111 94 57 69 95 128 132 116 113 19 31 140 229 212 189 197 236 218 187 94 248 228 230 240 216 207 206 208 214 216 220 224 226 230 234 239 251
136 136 144 147 144 143 139 122 108 103 107 118 116 115 118 125 134 134 125 111 105 108 134 142 124 50 68 80 73 79 92 109 128 122 101 83 75 70 70 65 63 68 74 94 101 116 124 113 57 98 101 101 83 90 103 102 121 133 67 89 339 7 330 289 356 197 212 213 169 86 313 268 242 236 237 217 207 203 207 217 220 222 226 229 232 238 243 250
136 140 148 152 151 151 152 140 125 110 112 132 142 142 138 141 155 158 147 123 97 76 156 193 210 270 120 95 75 81 98 121 135 128 107 88 78 71 70 70 69 68 68 79 86 95 105 111 112 100 87 79 97 112 95 58 84 126 9 46 31 7 264 308 347 206 81 207 174 81 303 258 272 257 240 219 210 207 212 218 222 225 228 232 234 239 246 250
141 144 152 155 154 153 159 162 160 134 120 133 148 159 155 150 169 182 178 158 65 55 93 133 130 116 104 96 88 88 103 134 143 137 117 95 81 73 67 71 75 76 77 81 90 99 108 115 97 81 67 70 89 93 46 9 22 42 22 321 336 163 258 310 335 122 65 235 194 132 273 263 273 264 237 215 209 210 217 222 224 227 230 234 238 240 246 252
147 146 149 154 154 152 157 165 169 149 134 132 134 140 142 143 163 179 193 190 101 86 96 112 116 117 97 90 101 101 113 142 153 150 131 111 96 75 43 56 68 70 74 83 94 102 109 108 78 61 52 57 66 74 55 16 352 10 41 271 278 262 285 315 317 134 78 142 201 186 245 274 262 257 229 208 209 212 218 226 226 229 234 236 240 243 247 254
150 145 142 147 149 145 143 139 142 143 140 140 137 138 143 142 153 177 196 161 123 99 93 114 103 82 79 99 111 96 110 135 157 170 161 136 89 78 31 337 55 59 61 81 94 92 84 78 76 58 48 47 45 86 72 357 320 326 12 311 266 254 291 312 289 280 52 91 221 219 239 264 263 266 233 210 212 213 218 228 230 232 236 238 242 244 248 254
151 146 139 144 147 144 146 145 145 149 149 159 163 161 159 150 145 155 159 152 147 121 110 136 74 57 67 89 88 71 99 140 169 175 165 162 70 82 19 339 305 43 47 66 55 51 58 64 83 73 35 32 26 66 101 225 240 263 291 300 295 278 249 273 272 285 40 41 260 255 257 265 268 266 237 219 214 215 222 231 234 236 238 241 243 245 250 253
153 148 142 145 152 157 169 165 147 142 141 146 148 148 163 166 158 157 165 187 221 222 252 324 15 105 128 97 83 73 82 110 192 199 189 196 202 90 34 47 76 97 66 63 24 30 50 63 67 58 8 352 342 111 155 200 200 215 235 228 267 288 265 258 262 265 32 329 274 258 253 266 279 271 241 227 217 217 228 234 237 240 241 242 244 247 250 253
154 146 140 140 148 156 150 139 131 129 126 122 127 131 157 166 146 109 108 88 78 82 78 39 64 96 115 123 146 87 73 61 38 331 208 210 188 116 67 75 74 55 53 49 357 21 55 67 60 132 256 261 230 198 180 177 172 177 187 218 252 275 275 271 270 271 21 342 267 241 249 267 276 276 262 239 218 218 230 235 238 240 241 243 245 248 251 254
142 136 136 136 141 145 140 132 120 110 154 176 175 184 199 194 154 121 107 85 78 80 74 69 74 80 78 65 239 213 139 59 47 46 177 206 197 193 8 27 67 42 18 336 50 21 61 78 138 229 229 222 200 188 146 103 107 122 172 227 274 271 271 285 277 265 27 19 277 273 279 271 267 272 268 232 204 218 226 228 236 239 241 244 246 249 252 256
134 134 135 138 144 149 141 119 78 47 63 173 191 216 226 214 168 146 127 95 87 85 71 65 65 63 59 43 33 213 224 51 47 47 59 158 185 201 33 59 73 54 347 2 79 24 44 85 243 242 188 129 106 116 97 90 102 105 147 186 289 272 282 304 298 232 50 18 292 311 305 281 270 268 260 216 204 226 230 229 237 240 241 246 248 251 254 256
134 132 133 138 149 161 147 116 93 80 84 103 124 143 161 159 137 130 123 105 97 84 70 60 46 37 39 34 29 35 81 46 25 26 37 68 111 92 82 76 71 52 6 18 119 93 40 234 229 205 165 151 92 20 55 56 62 170 183 165 278 286 343 300 300 311 290 248 265 302 300 286 289 295 280 233 222 236 241 238 242 243 245 251 254 256 257 257
131 129 130 131 136 147 139 125 97 85 101 103 107 121 126 131 129 118 106 100 98 103 96 61 26 23 37 32 21 40 67 57 29 16 26 47 86 81 85 91 69 59 12 19 105 111 156 213 169 126 127 155 146 18 60 59 338 274 213 193 245 280 242 246 288 326 311 280 253 302 303 292 322 338 305 281 238 244 249 247 248 247 248 253 256 258 257 257
129 127 125 123 125 129 129 123 87 89 110 119 138 142 131 134 133 108 87 84 39 253 159 322 1 7 2 354 345 48 62 55 38 21 23 37 57 92 90 80 64 102 232 341 81 99 191 197 174 134 46 72 113 55 133 134 333 305 232 202 223 274 268 265 310 336 342 348 328 6 348 296 319 308 273 309 309 257 251 248 251 250 250 251 252 255 257 256
129 127 120 119 122 122 126 118 96 91 97 133 188 198 182 184 162 131 65 61 327 270 184 214 0 349 323 349 331 158 34 23 36 22 21 29 24 112 103 45 53 126 203 197 78 145 199 93 141 137 79 57 67 343 218 138 44 323 244 196 216 277 287 284 303 346 355 296 299 52 86 270 302 288 272 315 308 277 269 252 253 254 252 250 251 255 258 258
133 130 122 120 118 115 118 97 86 73 59 106 229 247 228 198 160 230 43 40 321 253 116 204 219 339 342 13 17 168 325 322 32 17 20 28 6 125 161 306 71 104 165 120 37 260 171 80 36 72 70 57 45 336 223 139 76 283 229 133 303 304 304 291 222 174 230 278 319 21 123 239 290 271 283 337 303 286 281 263 257 254 252 252 254 257 258 259
143 141 133 127 118 109 99 68 49 34 14 347 289 261 218 190 194 168 91 62 295 167 71 192 144 74 26 29 36 108 56 343 55 3 14 32 6 72 144 200 154 152 139 118 308 277 158 198 226 141 78 47 229 235 184 143 134 259 257 313 300 297 298 232 136 170 278 352 326 321 90 189 276 268 316 356 304 288 276 265 258 253 253 256 257 259 260 262
159 159 156 150 135 109 91 50 18 5 348 334 315 267 211 187 214 59 83 145 280 104 77 164 150 46 356 24 32 49 54 27 28 354 11 42 16 49 92 136 130 122 106 118 210 236 163 249 218 154 138 223 233 229 167 157 217 284 312 317 316 53 48 83 108 142 33 25 276 266 82 75 278 279 317 3 270 266 265 263 259 258 259 258 258 260 261 262
177 179 184 185 180 235 316 8 352 333 328 327 312 216 169 148 85 64 48 247 258 97 229 180 199 303 352 37 19 20 47 19 359 353 18 52 37 62 103 122 115 113 66 21 140 230 323 0 235 162 184 209 218 257 176 178 251 311 341 334 359 39 47 60 68 90 60 345 262 249 217 98 299 284 260 222 228 227 244 269 268 262 261 257 256 259 260 260
194 200 211 221 237 274 289 312 316 307 309 297 213 158 155 95 70 94 217 240 77 323 316 28 295 352 32 94 23 359 21 2 355 8 20 24 23 41 84 111 74 61 9 353 352 308 342 9 255 257 219 180 76 347 280 175 300 351 16 344 350 353 25 27 353 41 63 282 258 247 263 115 228 268 252 237 243 222 224 256 265 261 262 262 259 261 261 261
209 218 232 246 258 279 288 293 295 287 285 242 181 168 125 49 14 182 240 296 17 298 209 31 326 47 52 64 73 336 344 353 3 37 63 22 27 22 49 163 174 33 351 307 325 328 314 245 277 332 245 186 106 358 336 354 12 29 42 27 19 350 5 7 333 17 205 251 221 201 277 251 229 252 261 264 265 250 234 242 253 259 265 269 267 266 265 263
231 236 249 261 268 279 280 283 284 269 254 194 173 157 82 80 236 222 247 318 0 316 48 57 357 79 76 35 5 311 297 299 352 31 82 86 53 13 300 194 155 63 326 236 341 347 330 300 319 352 254 192 143 113 320 313 359 22 55 74 74 40 11 329 302 334 286 276 234 191 236 283 274 266 246 246 259 261 253 253 259 264 266 269 269 269 267 264
247 252 261 267 270 271 273 276 271 249 212 176 157 104 77 154 235 219 247 261 261 0 28 63 31 29 61 116 273 269 202 286 350 32 10 28 49 340 291 304 38 98 97 94 30 49 353 303 276 198 228 170 148 158 163 153 51 26 167 128 116 127 122 258 259 265 293 301 285 224 196 215 270 281 230 235 267 274 271 269 269 270 268 267 266 266 266 266
249 254 258 261 262 261 266 267 251 217 185 171 122 75 134 227 248 206 231 245 224 17 5 46 64 42 350 311 303 271 158 277 352 48 9 23 173 204 210 240 234 117 115 86 282 155 161 270 262 325 5 131 145 187 131 102 63 307 161 108 85 172 155 180 207 194 266 325 297 252 228 208 238 279 277 287 290 281 276 273 270 269 268 265 262 264 267 269
242 244 248 253 255 253 256 245 216 184 178 163 87 74 201 230 244 188 200 163 130 145 133 10 57 81 308 306 329 3 104 251 348 39 325 246 205 202 196 217 191 138 134 147 224 162 59 279 289 15 23 73 103 188 108 72 116 108 105 197 230 163 125 110 274 349 65 14 283 275 269 281 310 291 300 343 315 292 286 275 265 265 267 265 264 267 271 273
232 239 248 251 251 243 228 213 181 178 181 148 96 212 218 226 203 193 169 101 129 126 117 259 270 182 250 283 296 310 0 304 330 28 254 268 235 190 179 230 194 167 159 151 212 191 151 280 300 54 90 23 72 118 70 52 101 108 180 211 188 96 92 97 343 348 41 246 275 317 286 295 345 302 312 345 307 288 286 277 269 270 269 265 267 274 277 278
227 240 250 255 249 229 207 191 173 175 169 120 116 241 214 189 214 191 161 135 123 90 105 196 237 196 193 226 271 258 175 247 297 344 217 259 257 177 147 174 184 172 183 138 156 202 124 286 302 0 189 312 38 95 40 23 57 111 173 165 105 112 259 50 70 329 2 290 285 305 293 279 208 234 286 304 289 284 286 285 278 273 270 269 275 281 284 283
237 244 253 265 241 211 191 178 178 174 140 104 226 248 207 216 242 170 171 168 121 112 151 213 230 77 176 182 209 221 199 207 207 202 214 221 258 188 145 161 172 162 175 137 144 216 111 156 287 307 282 314 11 106 229 326 47 70 105 82 34 150 177 186 153 166 195 271 285 316 323 285 227 211 232 269 278 282 284 286 277 271 275 280 284 286 287 285
241 250 260 255 215 189 172 165 171 167 124 159 204 214 300 254 226 179 178 180 147 152 204 209 163 175 214 200 207 205 182 192 177 174 222 229 256 230 183 166 155 149 144 103 124 150 89 146 256 300 328 312 260 211 195 179 147 114 126 261 307 99 137 222 298 139 147 176 226 295 307 278 260 209 214 258 274 271 264 269 271 275 283 290 291 291 290 287
233 255 257 224 191 174 166 154 138 117 120 186 209 202 309 251 195 191 188 186 191 210 201 177 162 184 193 197 237 207 154 182 183 183 234 231 230 244 204 173 163 148 116 83 165 197 127 166 217 292 308 245 232 241 192 183 171 157 182 199 183 147 118 79 297 288 114 161 187 180 286 278 271 192 211 248 260 264 264 258 265 279 288 293 295 295 293 289
219 236 242 206 185 174 166 142 48 53 121 166 228 197 211 217 172 185 191 195 223 312 153 140 156 177 173 178 212 183 155 186 194 194 231 218 205 217 173 163 168 155 130 126 233 217 142 120 161 270 262 237 252 295 84 192 159 141 178 186 149 135 127 140 231 251 225 200 175 112 268 270 262 178 199 245 252 267 274 269 267 281 290 293 295 297 295 292
216 222 224 204 189 176 165 119 347 357 77 168 216 193 189 200 174 160 188 204 214 143 89 275 192 195 220 195 156 177 193 199 188 191 223 225 218 229 162 153 164 158 129 97 238 180 133 93 54 276 283 310 312 307 341 28 87 135 224 156 144 158 141 152 176 181 208 218 159 105 254 267 271 205 206 249 260 271 283 285 278 280 289 293 295 297 297 296
227 219 209 201 193 186 184 208 217 267 288 315 22 207 210 224 206 180 201 220 211 174 156 246 205 199 237 84 112 198 212 203 208 209 210 208 198 145 149 154 165 167 163 213 172 158 192 198 78 322 320 336 351 346 333 337 68 211 242 190 158 115 98 112 133 101 271 226 167 158 244 260 270 274 260 273 280 284 291 295 291 283 288 294 296 298 299 298
226 216 214 199 198 204 217 207 163 163 208 198 342 261 218 242 227 213 221 219 202 188 183 270 186 159 110 76 75 254 221 200 259 300 28 233 242 126 146 168 182 186 203 202 150 150 189 221 145 142 298 292 298 309 305 276 235 227 225 206 189 140 134 154 127 113 243 234 159 174 244 263 279 299 303 298 299 298 297 300 300 293 291 294 297 298 298 298
199 208 238 211 206 208 217 218 167 140 154 169 294 292 184 110 273 233 214 208 204 199 201 207 156 129 81 107 158 262 248 234 313 330 290 243 263 329 151 181 195 193 177 154 145 134 104 256 212 196 214 235 255 264 257 80 286 269 255 217 197 182 161 131 108 174 203 177 187 233 250 273 288 291 295 296 297 297 297 300 302 301 299 298 298 298 297 296
218 220 227 172 224 208 170 186 178 140 149 171 195 242 193 238 312 274 213 220 218 204 208 219 179 171 185 181 189 244 241 256 18 236 230 219 244 328 249 188 169 171 164 149 153 120 83 287 242 209 230 249 264 276 301 358 282 268 267 242 201 185 163 159 199 209 157 122 252 251 243 262 280 283 290 296 297 297 297 299 301 302 303 302 300 299 297 296
233 244 233 183 215 208 116 180 175 130 125 148 159 151 175 223 256 224 210 212 220 203 201 264 232 210 195 176 166 204 225 295 264 232 207 207 256 7 357 214 174 173 167 149 170 132 117 256 243 195 253 268 274 277 279 276 264 263 265 257 229 193 178 196 224 213 157 195 253 261 262 268 277 284 290 290 290 293 295 297 300 301 302 302 302 300 298 297
251 258 221 195 221 205 156 185 159 129 116 106 130 175 177 197 225 233 193 124 328 233 192 230 260 235 203 178 152 178 212 222 271 256 195 162 202 136 317 256 197 179 162 131 180 148 140 247 248 136 288 283 275 275 274 255 265 276 267 250 227 216 203 208 232 225 196 232 256 267 277 280 277 280 282 282 285 290 293 296 299 300 302 304 304 302 301 301
258 261 214 190 190 128 116 138 143 126 95 66 223 230 186 185 216 237 182 167 217 236 177 214 260 243 195 184 175 204 217 192 203 260 185 154 198 199 198 213 165 142 133 126 95 146 164 259 302 89 312 289 285 315 321 238 244 272 278 268 233 227 227 220 238 240 219 245 259 269 280 281 272 270 270 276 283 290 294 297 301 304 307 309 309 308 306 305
247 254 236 187 142 107 109 128 132 122 75 202 213 229 205 203 212 206 195 203 203 187 184 205 233 97 115 185 209 237 253 223 218 256 206 196 240 228 215 210 155 135 150 175 137 129 161 268 2 61 340 286 311 1 325 290 270 269 279 280 248 212 221 220 227 214 198 233 263 279 283 274 273 278 277 280 287 295 298 301 306 309 311 313 312 310 308 307
244 246 240 210 152 148 163 136 98 122 239 222 201 203 218 247 212 169 196 258 222 213 235 224 194 101 100 205 229 251 277 264 254 271 247 241 260 257 243 215 167 147 162 165 133 145 144 137 41 58 315 273 299 331 313 315 319 291 268 250 208 200 230 249 255 226 205 211 258 271 262 270 289 301 301 300 302 305 306 307 308 309 311 311 310 308 307 309